Weather History for Newark Heath, OH

Change the Weather History Date:

Thursday, May 30, 2013

  Actual Average Record
Temperature  
Mean Temperature 74 °F -  
Max Temperature 88 °F 76 °F 91 °F (1953)
Min Temperature 60 °F 55 °F 35 °F (1947)
Cooling Degree Days 8    
Growing Degree Days 24 (Base 50)    
Moisture  
Dew Point 62 °F    
Average Humidity 70    
Maximum Humidity 100    
Minimum Humidity 38    
Precipitation  
Precipitation 0.00 in - - ()
Sea Level Pressure  
Sea Level Pressure 30.10 in    
Wind  
Wind Speed 3 mph (SSW)    
Max Wind Speed 12 mph    
Max Gust Speed 16 mph    
Visibility 9 miles    
Events      
Averages and records for this station are not official NWS values.
T = Trace of Precipitation, MM = Missing Value Source: NWS Daily Summary

Daily Weather History Graph

Daily Weather History Graph

Search for Another Location

Airport:

Trip Planner

Search our weather history database for the weather conditions in past years. The results will help you decide how hot, cold, wet, or windy it might be!

Date:

Astronomy

May. 30, 2013 Rise Set
Actual Time 6:03 AM EDT 8:51 PM EDT
Civil Twilight 5:31 AM EDT 9:23 PM EDT
Nautical Twilight 4:51 AM EDT 10:03 PM EDT
Astronomical Twilight 4:05 AM EDT 10:50 PM EDT
Moon 12:51 AM EDT (5/30) 12:10 PM EDT (5/30)
Length of Visible Light 15h 51m
Length of Day
14h 47m
Waning Gibbous, 62% of the Moon is Illuminated
May 30
Waning Gibbous
May 31
Last Quarter
Jun 8
New
Jun 16
First Quarter
Jun 23
Full

Hourly Weather History & Observations

Time (EDT) Temp. Heat Index Dew Point Humidity Pressure Visibility Wind Dir Wind Speed Gust Speed Precip Events Conditions
12:54 AM 66.0 °F - 62.1 °F 87% 30.08 in 10.0 mi Calm Calm - N/A   Clear
1:54 AM 64.0 °F - 62.1 °F 93% 30.08 in 10.0 mi Calm Calm - N/A   Clear
2:54 AM 63.0 °F - 61.0 °F 93% 30.09 in 10.0 mi Calm Calm - N/A   Clear
3:54 AM 63.0 °F - 61.0 °F 93% 30.10 in 10.0 mi Calm Calm - N/A   Clear
4:54 AM 61.0 °F - 60.1 °F 97% 30.11 in 6.0 mi Calm Calm - N/A   Clear
5:54 AM 60.1 °F - 57.9 °F 93% 30.12 in 5.0 mi Calm Calm - N/A   Clear
6:41 AM 60.8 °F - 60.8 °F 100% 30.14 in 2.5 mi Calm Calm - N/A   Clear
6:50 AM 60.8 °F - 60.8 °F 100% 30.15 in 5.0 mi Calm Calm - N/A   Clear
6:54 AM 62.1 °F - 61.0 °F 96% 30.13 in 5.0 mi Calm Calm - N/A   Clear
7:54 AM 70.0 °F - 64.0 °F 81% 30.14 in 10.0 mi Calm Calm - N/A   Clear
8:54 AM 73.9 °F - 64.9 °F 73% 30.16 in 10.0 mi SSW 5.8 mph - N/A   Clear
9:54 AM 77.0 °F - 64.0 °F 64% 30.17 in 10.0 mi SW 6.9 mph - N/A   Clear
10:54 AM 79.0 °F - 64.9 °F 62% 30.16 in 10.0 mi SW 9.2 mph 16.1 mph N/A   Clear
11:54 AM 82.0 °F 84.1 °F 66.0 °F 58% 30.14 in 10.0 mi SSW 9.2 mph - N/A   Clear
12:54 PM 84.0 °F 85.8 °F 64.9 °F 53% 30.14 in 10.0 mi SSW 6.9 mph - N/A   Clear
1:54 PM 84.0 °F 85.8 °F 64.9 °F 53% 30.12 in 10.0 mi SW 6.9 mph - N/A   Partly Cloudy
2:54 PM 82.9 °F 84.6 °F 64.9 °F 54% 30.11 in 10.0 mi SW 8.1 mph - N/A   Scattered Clouds
3:54 PM 87.1 °F 88.9 °F 64.9 °F 48% 30.09 in 10.0 mi SSW 11.5 mph - N/A   Partly Cloudy
4:54 PM 87.1 °F 87.0 °F 61.0 °F 41% 30.06 in 10.0 mi South 11.5 mph 16.1 mph N/A   Partly Cloudy
5:54 PM 87.1 °F 86.7 °F 60.1 °F 40% 30.05 in 10.0 mi SSE 10.4 mph - N/A   Clear
6:54 PM 86.0 °F 85.0 °F 57.9 °F 38% 30.04 in 10.0 mi SSE 11.5 mph - N/A   Clear
7:54 PM 82.0 °F 82.1 °F 59.0 °F 45% 30.04 in 10.0 mi South 8.1 mph - N/A   Clear
8:54 PM 80.1 °F 80.9 °F 60.1 °F 50% 30.04 in 10.0 mi SSE 4.6 mph - N/A   Clear
9:54 PM 77.0 °F - 60.1 °F 56% 30.05 in 10.0 mi Calm Calm - N/A   Clear
10:54 PM 69.1 °F - 61.0 °F 75% 30.08 in 10.0 mi Calm Calm - N/A   Clear
11:54 PM 66.9 °F - 62.1 °F 84% 30.08 in 10.0 mi Calm Calm - N/A   Clear